Regional Weather Roundup
Issued by NWS

Home | Current Version | Previous Version | Graphics & Text | Print | Product List | Glossary On
Versions: 1 2 3 4 5 6 7 8 9 10 11 12 13 14 15 16 17 18 19 20 21 22 23 24 25 26 27 28 29 30 31 32 33 34 35 36 37 38 39 40 41 42 43 44 45 46 47 48 49 50
000
ASUS45 KABQ 241201
RWRNM
NEW MEXICO REGIONAL WEATHER ROUNDUP
NATIONAL WEATHER SERVICE ALBUQUERQUE NM
600 AM MDT MON APR 24 2017

NOTE: "FAIR" MEANS FEW OR NO CLOUDS BELOW 12,000 FEET AGL WITH NO
       SIGNIFICANT WEATHER OR OBSTRUCTIONS TO VISION.

      THIS PRODUCT IS RELEASED AS TWO VERSIONS.  ONE VERSION NEAR
      THE TOP OF THE HOUR CONTAINING PRELIMINARY DATA FROM ALBUQUERQUE
      AND OTHER STATIONS.  A FINAL VERSION WITH ADDITIONAL DATA IS
      ISSUED ABOUT 10 MINUTES AFTER THE HOUR.

NMZ501-503-504-510>518-241300-
NORTHWEST PLATEAU/NORTHCENTRAL MOUNTAINS

CITY           SKY/WX    TMP DP  RH WIND       PRES   REMARKS
FARMINGTON     FAIR      47  19  33 E7        29.83S
6HR MIN TEMP:  43; 6HR MAX TEMP:  60;

LOS ALAMOS     FAIR      49  24  36 S6        29.97R
SANTA FE       FAIR      44  29  55 CALM      29.93R
6HR MIN TEMP:  44; 6HR MAX TEMP:  54;

TAOS             N/A     46  18  31 NE7       29.92R
ANGEL FIRE     FAIR      48  17  28 SW14G28   29.95R

$$
NMZ402-403-502-505>509-241300-
WESTCENTRAL MOUNTAINS/SOUTHWEST MOUNTAINS

CITY           SKY/WX    TMP DP  RH WIND       PRES   REMARKS
GALLUP         FAIR      43  20  39 SE5       29.94S
6HR MIN TEMP:  38; 6HR MAX TEMP:  56;

GRANTS         FAIR      48  18  30 SW10      29.97F
SILVER CITY    FAIR      47  23  39 W7        29.96R

$$
NMZ407-409-411-412-241300-
SOUTHERN DESERTS

CITY           SKY/WX    TMP DP  RH WIND       PRES   REMARKS
DEMING         FAIR      51  29  42 W3        29.90R
6HR MIN TEMP:  46; 6HR MAX TEMP:  60;

LAS CRUCES     FAIR      59  30  33 W10       29.90R
ALAMOGORDO     FAIR      66  39  37 S12G21    29.87R
T OR C         FAIR      55  30  38 N7        29.88R
6HR MIN TEMP:  55; 6HR MAX TEMP:  69;


$$
NMZ519>523-241300-
CENTRAL VALLEYS/CENTRAL HIGHLANDS

CITY           SKY/WX    TMP DP  RH WIND       PRES   REMARKS
ALBUQUERQUE    FAIR      49  29  46 SE7       29.90S
6HR MIN TEMP:  49; 6HR MAX TEMP:  62;

DOUBLE EAGLE   PTCLDY    45  25  45 SW10      29.93
MORIARTY ARPT  FAIR      38  28  69 SE3       29.94S
6HR MIN TEMP:  35; 6HR MAX TEMP:  52;

CLINES CORNERS FAIR      43  27  53 W15       29.97R
6HR MIN TEMP:  43; 6HR MAX TEMP:  53;

BELEN          FAIR      45  29  53 S3        29.91R
6HR MIN TEMP:  44; 6HR MAX TEMP:  60;

SOCORRO        FAIR      50  30  46 SW3       29.89R
6HR MIN TEMP:  49; 6HR MAX TEMP:  64;


$$
NMZ524>526-539-540-241300-
SOUTHCENTRAL MOUNTAINS

CITY           SKY/WX    TMP DP  RH WIND       PRES   REMARKS
RUIDOSO        NOT AVBL

$$
NMZ527>531-241300-
NORTHEAST HIGHLANDS/NORTHEAST PLAINS

CITY           SKY/WX    TMP DP  RH WIND       PRES   REMARKS
LAS VEGAS      FAIR      45  23  42 S12       29.89S
6HR MIN TEMP:  41; 6HR MAX TEMP:  46;

RATON          FAIR      38  28  67 NE9       29.81F WCI  31
6HR MIN TEMP:  36; 6HR MAX TEMP:  49;

CLAYTON        FAIR      47  32  56 W13       29.78R
6HR MIN TEMP:  46; 6HR MAX TEMP:  55;


$$
NMZ532>537-241300-
EASTCENTRAL PLAINS

CITY           SKY/WX    TMP DP  RH WIND       PRES   REMARKS
SANTA ROSA     FAIR      42  30  64 CALM      29.85S
TUCUMCARI      FAIR      56  32  40 SW17G28   29.76F
6HR MIN TEMP:  54; 6HR MAX TEMP:  61;

CANNON AFB     NOT AVBL
CLOVIS AIRPORT FAIR      39  30  70 S7        29.84F WCI  34

$$
NMZ028-029-538-241300-
SOUTHEAST PLAINS

CITY           SKY/WX    TMP DP  RH WIND       PRES   REMARKS
ROSWELL        FAIR      50  33  52 S6        29.86
6HR MIN TEMP:  50; 6HR MAX TEMP:  58;

ARTESIA        FAIR      50  34  53 S10       29.84F
CARLSBAD       FAIR      52  34  50 N3        29.84S
6HR MIN TEMP:  50; 6HR MAX TEMP:  60;

HOBBS          CLEAR     50  32  50 S6        29.87F


$$



USA.gov is the U.S. government's official web portal to all federal, state and local government web resources and services.